Time,TemperatureF,DewpointF,PressureIn,WindDirection,WindDirectionDegrees,WindSpeedMPH,WindSpeedGustMPH,Humidity,HourlyPrecipIn,Conditions,Clouds,dailyrainin,SoftwareType,DateUTC
2013-05-24 00:01:00,38.5,30.3,31.23,SW,220,0.0,0.0,72,0.00,,---,0.00,VWS V14.01,2013-05-24 07:01:00,
2013-05-24 00:06:00,38.5,30.6,31.23,South,178,0.0,0.0,73,0.00,,---,0.00,VWS V14.01,2013-05-24 07:06:00,
2013-05-24 00:11:00,38.5,30.6,31.23,SSW,209,0.0,0.0,73,0.00,,---,0.00,VWS V14.01,2013-05-24 07:11:00,
2013-05-24 00:16:00,38.5,30.6,31.23,SSW,200,0.0,0.0,73,0.00,,---,0.00,VWS V14.01,2013-05-24 07:16:00,
2013-05-24 00:21:00,38.5,30.6,31.23,SW,227,0.0,0.0,73,0.00,,---,0.00,VWS V14.01,2013-05-24 07:21:00,
2013-05-24 00:27:00,38.5,30.6,31.23,SW,215,0.0,0.0,73,0.00,,---,0.00,VWS V14.01,2013-05-24 07:27:00,
2013-05-24 00:32:00,38.5,30.6,31.23,SSW,196,0.0,0.0,73,0.00,,---,0.00,VWS V14.01,2013-05-24 07:32:00,
2013-05-24 00:37:00,38.3,30.4,31.22,South,179,0.0,0.0,73,0.00,,---,0.00,VWS V14.01,2013-05-24 07:37:00,
2013-05-24 00:42:00,38.3,30.4,31.22,SSW,195,0.0,0.0,73,0.00,,---,0.00,VWS V14.01,2013-05-24 07:42:00,
2013-05-24 00:47:00,38.2,30.3,31.22,SW,224,0.0,0.0,73,0.00,,---,0.00,VWS V14.01,2013-05-24 07:47:00,
2013-05-24 00:52:00,38.0,30.1,31.22,SSW,198,0.0,0.0,73,0.00,,---,0.00,VWS V14.01,2013-05-24 07:52:00,
2013-05-24 00:57:00,38.0,30.1,31.22,SW,216,0.0,0.0,73,0.00,,---,0.00,VWS V14.01,2013-05-24 07:57:00,
2013-05-24 01:02:00,37.9,30.0,31.22,SW,217,0.0,0.0,73,0.00,,---,0.00,VWS V14.01,2013-05-24 08:02:00,
2013-05-24 01:07:00,37.8,30.3,31.21,SSW,209,0.0,0.0,74,0.00,,---,0.00,VWS V14.01,2013-05-24 08:07:00,
2013-05-24 01:12:00,37.8,30.3,31.21,SSW,194,0.0,0.0,74,0.00,,---,0.00,VWS V14.01,2013-05-24 08:12:00,
2013-05-24 01:17:00,37.6,30.1,31.21,SSW,209,0.0,0.0,74,0.00,,---,0.00,VWS V14.01,2013-05-24 08:17:00,
2013-05-24 01:22:00,37.6,30.1,31.21,SW,216,0.0,0.0,74,0.00,,---,0.00,VWS V14.01,2013-05-24 08:22:00,
2013-05-24 01:27:00,37.5,30.3,31.21,South,189,0.0,0.0,75,0.00,,---,0.00,VWS V14.01,2013-05-24 08:27:00,
2013-05-24 01:32:00,37.5,30.3,31.21,SSW,198,0.0,0.0,75,0.00,,---,0.00,VWS V14.01,2013-05-24 08:32:00,
2013-05-24 01:37:00,37.3,30.1,31.21,South,191,0.0,0.0,75,0.00,,---,0.00,VWS V14.01,2013-05-24 08:37:00,
2013-05-24 01:42:00,37.2,30.0,31.20,SSW,199,0.0,0.0,75,0.00,,---,0.00,VWS V14.01,2013-05-24 08:42:00,
2013-05-24 01:48:00,37.2,30.0,31.20,SW,215,0.0,0.0,75,0.00,,---,0.00,VWS V14.01,2013-05-24 08:48:00,
2013-05-24 01:53:00,37.3,30.1,31.20,SSW,208,0.0,0.0,75,0.00,,---,0.00,VWS V14.01,2013-05-24 08:53:00,
2013-05-24 01:58:00,37.5,30.0,31.21,SSW,200,0.0,0.0,74,0.00,,---,0.00,VWS V14.01,2013-05-24 08:58:00,
2013-05-24 02:03:00,37.6,29.7,31.21,SW,226,0.0,0.0,73,0.00,,---,0.00,VWS V14.01,2013-05-24 09:03:00,
2013-05-24 02:08:00,37.9,29.0,31.21,SW,225,0.0,0.0,70,0.00,,---,0.00,VWS V14.01,2013-05-24 09:08:00,
2013-05-24 02:13:00,38.2,28.9,31.21,SW,217,0.0,0.0,69,0.00,,---,0.00,VWS V14.01,2013-05-24 09:13:00,
2013-05-24 02:18:00,38.3,28.7,31.21,SW,219,0.0,0.0,68,0.00,,---,0.00,VWS V14.01,2013-05-24 09:18:00,
2013-05-24 02:23:00,38.2,28.9,31.21,SW,217,0.0,0.0,69,0.00,,---,0.00,VWS V14.01,2013-05-24 09:23:00,
2013-05-24 02:28:00,38.0,28.8,31.21,SSW,202,0.0,0.0,69,0.00,,---,0.00,VWS V14.01,2013-05-24 09:28:00,
2013-05-24 02:33:00,37.8,28.9,31.21,SSW,211,0.0,0.0,70,0.00,,---,0.00,VWS V14.01,2013-05-24 09:33:00,
2013-05-24 02:38:00,37.8,29.3,31.21,SSW,211,0.0,0.0,71,0.00,,---,0.00,VWS V14.01,2013-05-24 09:38:00,
2013-05-24 02:43:00,37.5,29.3,31.21,SW,214,0.0,0.0,72,0.00,,---,0.00,VWS V14.01,2013-05-24 09:43:00,
2013-05-24 02:48:00,37.5,29.6,31.21,SSW,202,0.0,0.0,73,0.00,,---,0.00,VWS V14.01,2013-05-24 09:48:00,
2013-05-24 02:53:00,37.5,29.6,31.21,SSW,198,0.0,0.0,73,0.00,,---,0.00,VWS V14.01,2013-05-24 09:53:00,
2013-05-24 02:58:00,37.3,29.5,31.21,SSW,207,0.0,0.0,73,0.00,,---,0.00,VWS V14.01,2013-05-24 09:58:00,
2013-05-24 03:04:00,37.5,29.6,31.21,SSW,209,0.0,0.0,73,0.00,,---,0.00,VWS V14.01,2013-05-24 10:04:00,
2013-05-24 03:09:00,37.5,29.6,31.21,SW,219,0.0,0.0,73,0.00,,---,0.00,VWS V14.01,2013-05-24 10:09:00,
2013-05-24 03:14:00,37.5,29.6,31.21,SSW,202,0.0,0.0,73,0.00,,---,0.00,VWS V14.01,2013-05-24 10:14:00,
2013-05-24 03:19:00,37.3,29.5,31.20,SSW,212,0.0,0.0,73,0.00,,---,0.00,VWS V14.01,2013-05-24 10:19:00,
2013-05-24 03:24:00,37.2,29.7,31.20,South,190,0.0,0.0,74,0.00,,---,0.00,VWS V14.01,2013-05-24 10:24:00,
2013-05-24 03:29:00,37.0,29.5,31.20,SW,217,0.0,0.0,74,0.00,,---,0.00,VWS V14.01,2013-05-24 10:29:00,
2013-05-24 03:34:00,37.0,29.8,31.20,SSW,212,0.0,0.0,75,0.00,,---,0.00,VWS V14.01,2013-05-24 10:34:00,
2013-05-24 03:39:00,36.9,29.7,31.20,SSW,211,0.0,0.0,75,0.00,,---,0.00,VWS V14.01,2013-05-24 10:39:00,
2013-05-24 03:44:00,36.8,30.0,31.20,SW,218,0.0,0.0,76,0.00,,---,0.00,VWS V14.01,2013-05-24 10:44:00,
2013-05-24 03:49:00,36.8,30.0,31.20,SSW,210,0.0,0.0,76,0.00,,---,0.00,VWS V14.01,2013-05-24 10:49:00,
2013-05-24 03:54:00,36.8,30.0,31.20,SSW,203,0.0,0.0,76,0.00,,---,0.00,VWS V14.01,2013-05-24 10:54:00,
2013-05-24 03:59:00,36.6,30.1,31.20,South,191,0.0,0.0,77,0.00,,---,0.00,VWS V14.01,2013-05-24 10:59:00,
2013-05-24 04:04:00,36.5,30.0,31.20,SSW,200,0.0,0.0,77,0.00,,---,0.00,VWS V14.01,2013-05-24 11:04:00,
2013-05-24 04:09:00,36.6,30.1,31.20,South,175,0.0,0.0,77,0.00,,---,0.00,VWS V14.01,2013-05-24 11:09:00,
2013-05-24 04:14:00,36.5,30.0,31.20,SW,219,0.0,0.0,77,0.00,,---,0.00,VWS V14.01,2013-05-24 11:14:00,
2013-05-24 04:20:00,36.5,30.3,31.20,SSW,213,0.0,0.0,78,0.00,,---,0.00,VWS V14.01,2013-05-24 11:20:00,
2013-05-24 04:25:00,36.6,30.4,31.20,SSW,203,0.0,0.0,78,0.00,,---,0.00,VWS V14.01,2013-05-24 11:25:00,
2013-05-24 04:30:00,36.3,30.4,31.20,SSW,194,0.0,0.0,79,0.00,,---,0.00,VWS V14.01,2013-05-24 11:30:00,
2013-05-24 04:35:00,36.2,30.3,31.20,SW,219,0.0,0.0,79,0.00,,---,0.00,VWS V14.01,2013-05-24 11:35:00,
2013-05-24 04:40:00,36.2,30.6,31.20,SSW,209,0.0,0.0,80,0.00,,---,0.00,VWS V14.01,2013-05-24 11:40:00,
2013-05-24 04:45:00,36.3,30.7,31.20,SW,224,0.0,0.0,80,0.00,,---,0.00,VWS V14.01,2013-05-24 11:45:00,
2013-05-24 04:50:00,36.3,31.0,31.20,SW,222,0.0,0.0,81,0.00,,---,0.00,VWS V14.01,2013-05-24 11:50:00,
2013-05-24 04:55:00,36.3,31.0,31.20,SSW,205,0.0,0.0,81,0.00,,---,0.00,VWS V14.01,2013-05-24 11:55:00,
2013-05-24 05:00:00,36.2,30.9,31.20,SW,223,0.0,0.0,81,0.00,,---,0.00,VWS V14.01,2013-05-24 12:00:00,
2013-05-24 05:05:00,36.2,30.9,31.19,SSW,208,0.0,0.0,81,0.00,,---,0.00,VWS V14.01,2013-05-24 12:05:00,
2013-05-24 05:10:00,36.0,31.0,31.19,SW,217,0.0,0.0,82,0.00,,---,0.00,VWS V14.01,2013-05-24 12:10:00,
2013-05-24 05:15:00,36.0,31.0,31.19,SW,227,0.0,0.0,82,0.00,,---,0.00,VWS V14.01,2013-05-24 12:15:00,
2013-05-24 05:20:00,36.2,31.2,31.19,SSW,202,0.0,0.0,82,0.00,,---,0.00,VWS V14.01,2013-05-24 12:20:00,
2013-05-24 05:25:00,36.2,31.2,31.19,SW,225,0.0,0.0,82,0.00,,---,0.00,VWS V14.01,2013-05-24 12:25:00,
2013-05-24 05:30:00,36.2,31.2,31.19,SSW,200,0.0,0.0,82,0.00,,---,0.00,VWS V14.01,2013-05-24 12:30:00,
2013-05-24 05:35:00,36.3,31.3,31.19,SW,221,0.0,0.0,82,0.00,,---,0.00,VWS V14.01,2013-05-24 12:35:00,
2013-05-24 05:41:00,36.5,31.2,31.20,SSW,211,0.0,0.0,81,0.00,,---,0.00,VWS V14.01,2013-05-24 12:41:00,
2013-05-24 05:46:00,36.6,31.3,31.20,SW,230,0.0,0.0,81,0.00,,---,0.00,VWS V14.01,2013-05-24 12:46:00,
2013-05-24 05:51:00,36.8,31.2,31.20,SW,225,0.0,0.0,80,0.00,,---,0.00,VWS V14.01,2013-05-24 12:51:00,
2013-05-24 05:56:00,36.9,31.3,31.20,SW,223,0.0,0.0,80,0.00,,---,0.00,VWS V14.01,2013-05-24 12:56:00,
2013-05-24 06:01:00,37.0,31.4,31.20,SSW,211,0.0,0.0,80,0.00,,---,0.00,VWS V14.01,2013-05-24 13:01:00,
2013-05-24 06:06:00,37.2,31.3,31.18,SW,227,0.0,0.0,79,0.00,,---,0.00,VWS V14.01,2013-05-24 13:06:00,
2013-05-24 06:11:00,37.3,31.4,31.18,SW,226,0.0,0.0,79,0.00,,---,0.00,VWS V14.01,2013-05-24 13:11:00,
2013-05-24 06:16:00,37.3,31.1,31.18,SW,215,0.0,0.0,78,0.00,,---,0.00,VWS V14.01,2013-05-24 13:16:00,
2013-05-24 06:21:00,37.5,31.3,31.18,SSW,196,0.0,0.0,78,0.00,,---,0.00,VWS V14.01,2013-05-24 13:21:00,
2013-05-24 06:26:00,37.6,31.4,31.19,SW,232,0.0,0.0,78,0.00,,---,0.00,VWS V14.01,2013-05-24 13:26:00,
2013-05-24 06:31:00,38.0,31.4,31.19,SSW,207,0.0,0.0,77,0.00,,---,0.00,VWS V14.01,2013-05-24 13:31:00,
2013-05-24 06:36:00,38.6,31.4,31.19,SW,216,0.0,0.0,75,0.00,,---,0.00,VWS V14.01,2013-05-24 13:36:00,
2013-05-24 06:42:00,38.9,31.3,31.19,SW,215,0.0,0.0,74,0.00,,---,0.00,VWS V14.01,2013-05-24 13:42:00,
2013-05-24 06:47:00,39.2,31.6,31.19,SW,229,0.0,0.0,74,0.00,,---,0.00,VWS V14.01,2013-05-24 13:47:00,
2013-05-24 06:52:00,39.8,31.5,31.20,SSW,211,0.0,0.0,72,0.00,,---,0.00,VWS V14.01,2013-05-24 13:52:00,
2013-05-24 06:57:00,39.6,31.3,31.20,SSW,198,0.0,0.0,72,0.00,,---,0.00,VWS V14.01,2013-05-24 13:57:00,
2013-05-24 07:02:00,39.2,31.3,31.19,WSW,240,0.0,0.0,73,0.00,,---,0.00,VWS V14.01,2013-05-24 14:02:00,
2013-05-24 07:07:00,38.9,30.7,31.18,SW,218,0.0,0.0,72,0.00,,---,0.00,VWS V14.01,2013-05-24 14:07:00,
2013-05-24 07:12:00,38.9,30.7,31.18,SW,230,0.0,0.0,72,0.00,,---,0.00,VWS V14.01,2013-05-24 14:12:00,
2013-05-24 07:17:00,38.9,30.3,31.18,SW,223,0.0,0.0,71,0.00,,---,0.00,VWS V14.01,2013-05-24 14:17:00,
2013-05-24 07:22:00,39.2,30.6,31.18,SSW,208,0.0,0.0,71,0.00,,---,0.00,VWS V14.01,2013-05-24 14:22:00,
2013-05-24 07:27:00,39.3,30.0,31.18,SW,215,0.0,0.0,69,0.00,,---,0.00,VWS V14.01,2013-05-24 14:27:00,
2013-05-24 07:32:00,39.6,29.9,31.19,SW,229,0.0,0.0,68,0.00,,---,0.00,VWS V14.01,2013-05-24 14:32:00,
2013-05-24 07:37:00,40.1,30.4,31.19,WSW,240,0.0,0.0,68,0.00,,---,0.00,VWS V14.01,2013-05-24 14:37:00,
2013-05-24 07:42:00,40.3,29.9,31.19,WSW,250,0.0,0.0,66,0.00,,---,0.00,VWS V14.01,2013-05-24 14:42:00,
2013-05-24 07:47:00,40.6,29.4,31.19,WSW,248,0.0,0.0,64,0.00,,---,0.00,VWS V14.01,2013-05-24 14:47:00,
2013-05-24 07:52:00,41.2,30.3,31.19,WSW,252,0.0,0.0,65,0.00,,---,0.00,VWS V14.01,2013-05-24 14:52:00,
2013-05-24 07:57:00,42.3,29.0,31.20,SW,231,0.0,0.0,59,0.00,,---,0.00,VWS V14.01,2013-05-24 14:57:00,
2013-05-24 08:03:00,43.2,29.9,31.20,West,261,0.0,0.0,59,0.00,,---,0.00,VWS V14.01,2013-05-24 15:03:00,
2013-05-24 08:08:00,44.6,30.3,31.20,SW,232,0.0,0.0,57,0.00,,---,0.00,VWS V14.01,2013-05-24 15:08:00,
2013-05-24 08:13:00,44.2,29.5,31.20,SSW,213,0.0,0.0,56,0.00,,---,0.00,VWS V14.01,2013-05-24 15:13:00,
2013-05-24 08:18:00,44.2,30.0,31.20,SSE,160,0.0,0.0,57,0.00,,---,0.00,VWS V14.01,2013-05-24 15:18:00,
2013-05-24 08:23:00,44.8,29.6,31.20,West,264,0.0,0.0,55,0.00,,---,0.00,VWS V14.01,2013-05-24 15:23:00,
2013-05-24 08:28:00,43.9,29.2,31.20,SW,236,0.0,0.0,56,0.00,,---,0.00,VWS V14.01,2013-05-24 15:28:00,
2013-05-24 08:33:00,43.3,28.2,31.19,SW,229,0.0,0.0,55,0.00,,---,0.00,VWS V14.01,2013-05-24 15:33:00,
2013-05-24 08:38:00,43.2,28.6,31.19,SW,227,0.0,0.0,56,0.00,,---,0.00,VWS V14.01,2013-05-24 15:38:00,
2013-05-24 08:43:00,43.8,29.1,31.20,WSW,254,0.0,0.0,56,0.00,,---,0.00,VWS V14.01,2013-05-24 15:43:00,
2013-05-24 08:48:00,44.9,28.4,31.20,SSW,206,0.0,0.0,52,0.00,,---,0.00,VWS V14.01,2013-05-24 15:48:00,
2013-05-24 08:53:00,46.1,28.5,31.21,WSW,240,0.0,0.0,50,0.00,,---,0.00,VWS V14.01,2013-05-24 15:53:00,
2013-05-24 08:58:00,47.0,27.3,31.21,SW,222,0.0,0.0,46,0.00,,---,0.00,VWS V14.01,2013-05-24 15:58:00,
2013-05-24 09:03:00,47.0,26.8,31.21,WSW,256,0.0,0.0,45,0.00,,---,0.00,VWS V14.01,2013-05-24 16:03:00,
2013-05-24 09:09:00,46.8,28.2,31.20,West,264,0.0,0.0,48,0.00,,---,0.00,VWS V14.01,2013-05-24 16:09:00,
2013-05-24 09:14:00,46.0,28.4,31.20,WNW,300,0.0,0.0,50,0.00,,---,0.00,VWS V14.01,2013-05-24 16:14:00,
2013-05-24 09:19:00,45.4,28.4,31.19,West,276,0.0,0.0,51,0.00,,---,0.00,VWS V14.01,2013-05-24 16:19:00,
2013-05-24 09:24:00,45.1,28.1,31.19,WNW,284,0.0,0.0,51,0.00,,---,0.00,VWS V14.01,2013-05-24 16:24:00,
2013-05-24 09:29:00,46.0,28.4,31.20,WSW,246,0.0,0.0,50,0.00,,---,0.00,VWS V14.01,2013-05-24 16:29:00,
2013-05-24 09:34:00,47.6,26.8,31.21,WNW,294,0.0,0.0,44,0.00,,---,0.00,VWS V14.01,2013-05-24 16:34:00,
2013-05-24 09:39:00,47.4,26.6,31.21,WSW,250,0.0,0.0,44,0.00,,---,0.00,VWS V14.01,2013-05-24 16:39:00,
2013-05-24 09:44:00,46.2,25.5,31.20,WSW,254,0.0,0.0,44,0.00,,---,0.00,VWS V14.01,2013-05-24 16:44:00,
2013-05-24 09:49:00,46.2,25.5,31.20,West,270,0.0,0.0,44,0.00,,---,0.00,VWS V14.01,2013-05-24 16:49:00,
2013-05-24 09:54:00,46.7,25.4,31.20,WNW,289,0.0,0.0,43,0.00,,---,0.00,VWS V14.01,2013-05-24 16:54:00,
2013-05-24 09:59:00,46.8,25.5,31.20,WSW,250,0.0,0.0,43,0.00,,---,0.00,VWS V14.01,2013-05-24 16:59:00,
2013-05-24 10:04:00,46.7,26.0,31.20,WSW,247,0.0,0.0,44,0.00,,---,0.00,VWS V14.01,2013-05-24 17:04:00,
2013-05-24 10:09:00,47.3,26.5,31.20,WSW,242,0.0,0.0,44,0.00,,---,0.00,VWS V14.01,2013-05-24 17:09:00,
2013-05-24 10:14:00,46.7,26.0,31.20,West,260,0.0,0.0,44,0.00,,---,0.00,VWS V14.01,2013-05-24 17:14:00,
2013-05-24 10:19:00,46.5,25.8,31.19,WSW,251,0.0,0.0,44,0.00,,---,0.00,VWS V14.01,2013-05-24 17:19:00,
2013-05-24 10:24:00,46.0,24.8,31.19,SW,224,0.0,0.0,43,0.00,,---,0.00,VWS V14.01,2013-05-24 17:24:00,
2013-05-24 10:29:00,47.1,24.6,31.20,SSW,204,0.0,0.0,41,0.00,,---,0.00,VWS V14.01,2013-05-24 17:29:00,
2013-05-24 10:35:00,49.9,26.0,31.21,West,261,0.0,0.0,39,0.00,,---,0.00,VWS V14.01,2013-05-24 17:35:00,
2013-05-24 10:40:00,50.2,24.3,31.21,SSW,205,0.0,0.0,36,0.00,,---,0.00,VWS V14.01,2013-05-24 17:40:00,
2013-05-24 10:45:00,51.7,25.6,31.22,WSW,253,0.0,0.0,36,0.00,,---,0.00,VWS V14.01,2013-05-24 17:45:00,
2013-05-24 10:50:00,51.1,26.4,31.22,WSW,249,0.0,0.0,38,0.00,,---,0.00,VWS V14.01,2013-05-24 17:50:00,
2013-05-24 10:55:00,49.8,25.9,31.21,WSW,256,0.0,0.0,39,0.00,,---,0.00,VWS V14.01,2013-05-24 17:55:00,
2013-05-24 11:00:00,51.3,26.6,31.22,WSW,254,0.0,0.0,38,0.00,,---,0.00,VWS V14.01,2013-05-24 18:00:00,
2013-05-24 11:05:00,50.7,26.0,31.22,WSW,244,0.0,0.0,38,0.00,,---,0.00,VWS V14.01,2013-05-24 18:05:00,
2013-05-24 11:10:00,51.0,28.1,31.22,SW,221,0.0,0.0,41,0.00,,---,0.00,VWS V14.01,2013-05-24 18:10:00,
2013-05-24 11:15:00,51.7,28.8,31.22,SSW,201,0.0,0.0,41,0.00,,---,0.00,VWS V14.01,2013-05-24 18:15:00,
2013-05-24 11:20:00,52.0,23.8,31.22,SW,229,0.0,0.0,33,0.00,,---,0.00,VWS V14.01,2013-05-24 18:20:00,
2013-05-24 11:25:00,52.5,25.7,31.22,WNW,298,0.0,0.0,35,0.00,,---,0.00,VWS V14.01,2013-05-24 18:25:00,
2013-05-24 11:30:00,54.7,25.4,31.24,South,177,0.0,0.0,32,0.00,,---,0.00,VWS V14.01,2013-05-24 18:30:00,
2013-05-24 11:35:00,53.9,26.9,31.23,West,271,0.0,0.0,35,0.00,,---,0.00,VWS V14.01,2013-05-24 18:35:00,
2013-05-24 11:40:00,55.1,25.0,31.24,SW,222,0.0,0.0,31,0.00,,---,0.00,VWS V14.01,2013-05-24 18:40:00,
2013-05-24 11:45:00,53.9,25.5,31.23,WNW,286,0.0,0.0,33,0.00,,---,0.00,VWS V14.01,2013-05-24 18:45:00,
2013-05-24 11:50:00,51.9,25.8,31.22,NNE,22,0.0,0.0,36,0.00,,---,0.00,VWS V14.01,2013-05-24 18:50:00,
2013-05-24 11:56:00,50.7,24.1,31.22,ENE,76,0.0,0.0,35,0.00,,---,0.00,VWS V14.01,2013-05-24 18:56:00,
2013-05-24 12:01:00,50.5,23.9,31.21,NE,34,0.0,0.0,35,0.00,,---,0.00,VWS V14.01,2013-05-24 19:01:00,
2013-05-24 12:06:00,50.5,24.6,31.21,NNW,347,0.0,0.0,36,0.00,,---,0.00,VWS V14.01,2013-05-24 19:06:00,
2013-05-24 12:11:00,51.0,26.3,31.21,WNW,288,0.0,0.0,38,0.00,,---,0.00,VWS V14.01,2013-05-24 19:11:00,
2013-05-24 12:16:00,50.8,24.8,31.21,NNW,348,0.0,0.0,36,0.00,,---,0.00,VWS V14.01,2013-05-24 19:16:00,
2013-05-24 12:21:00,51.0,26.9,31.21,NE,44,0.0,0.0,39,0.00,,---,0.00,VWS V14.01,2013-05-24 19:21:00,
2013-05-24 12:26:00,50.1,26.7,31.21,NNE,32,0.0,0.0,40,0.00,,---,0.00,VWS V14.01,2013-05-24 19:26:00,
2013-05-24 12:31:00,49.5,26.2,31.21,ENE,64,0.0,0.0,40,0.00,,---,0.00,VWS V14.01,2013-05-24 19:31:00,
2013-05-24 12:36:00,49.4,27.3,31.20,NNW,348,0.0,0.0,42,0.00,,---,0.00,VWS V14.01,2013-05-24 19:36:00,
2013-05-24 12:41:00,48.8,27.3,31.20,NNE,26,0.0,0.0,43,0.00,,---,0.00,VWS V14.01,2013-05-24 19:41:00,
2013-05-24 12:46:00,48.3,27.4,31.20,NNE,31,0.0,0.0,44,0.00,,---,0.00,VWS V14.01,2013-05-24 19:46:00,
2013-05-24 12:51:00,48.3,28.0,31.20,NE,44,0.0,0.0,45,0.00,,---,0.00,VWS V14.01,2013-05-24 19:51:00,
2013-05-24 12:56:00,48.5,28.1,31.20,NE,42,0.0,0.0,45,0.00,,---,0.00,VWS V14.01,2013-05-24 19:56:00,
2013-05-24 13:01:00,50.1,28.5,31.21,NNE,24,0.0,0.0,43,0.00,,---,0.00,VWS V14.01,2013-05-24 20:01:00,
2013-05-24 13:07:00,50.2,27.4,31.21,North,5,0.0,0.0,41,0.00,,---,0.00,VWS V14.01,2013-05-24 20:07:00,
2013-05-24 13:12:00,51.1,27.0,31.21,NNE,13,0.0,0.0,39,0.00,,---,0.00,VWS V14.01,2013-05-24 20:12:00,
2013-05-24 13:17:00,50.7,27.9,31.21,NNE,20,0.0,0.0,41,0.00,,---,0.00,VWS V14.01,2013-05-24 20:17:00,
2013-05-24 13:22:00,50.5,26.5,31.21,NE,42,0.0,0.0,39,0.00,,---,0.00,VWS V14.01,2013-05-24 20:22:00,
2013-05-24 13:27:00,49.2,27.7,31.20,NE,39,0.0,0.0,43,0.00,,---,0.00,VWS V14.01,2013-05-24 20:27:00,
2013-05-24 13:32:00,49.5,28.0,31.20,NE,42,0.0,0.0,43,0.00,,---,0.00,VWS V14.01,2013-05-24 20:32:00,
2013-05-24 13:37:00,49.5,27.4,31.21,NE,38,0.0,0.0,42,0.00,,---,0.00,VWS V14.01,2013-05-24 20:37:00,
2013-05-24 13:42:00,49.4,27.3,31.20,NE,37,0.0,0.0,42,0.00,,---,0.00,VWS V14.01,2013-05-24 20:42:00,
2013-05-24 13:47:00,49.2,26.5,31.20,North,5,0.0,0.0,41,0.00,,---,0.00,VWS V14.01,2013-05-24 20:47:00,
2013-05-24 13:52:00,49.6,26.9,31.21,NNW,340,0.0,0.0,41,0.00,,---,0.00,VWS V14.01,2013-05-24 20:52:00,
2013-05-24 13:57:00,49.6,26.9,31.21,North,355,0.0,0.0,41,0.00,,---,0.00,VWS V14.01,2013-05-24 20:57:00,
2013-05-24 14:02:00,49.2,25.9,31.20,NNE,17,0.0,0.0,40,0.00,,---,0.00,VWS V14.01,2013-05-24 21:02:00,
2013-05-24 14:08:00,49.1,26.4,31.20,North,5,0.0,0.0,41,0.00,,---,0.00,VWS V14.01,2013-05-24 21:08:00,
2013-05-24 14:13:00,49.1,27.0,31.20,NNE,12,0.0,0.0,42,0.00,,---,0.00,VWS V14.01,2013-05-24 21:13:00,
2013-05-24 14:18:00,49.2,26.5,28.51,North,5,0.0,0.0,41,0.00,,---,0.00,VWS V14.01,2013-05-24 21:18:00,
2013-05-24 14:23:00,48.8,26.2,28.51,North,5,0.0,0.0,41,0.00,,---,0.00,VWS V14.01,2013-05-24 21:23:00,
2013-05-24 14:28:00,49.4,26.7,29.85,North,355,0.0,0.0,41,0.00,,---,0.00,VWS V14.01,2013-05-24 21:28:00,
2013-05-24 14:33:00,50.1,26.7,31.20,North,355,0.0,0.0,40,0.00,,---,0.00,VWS V14.01,2013-05-24 21:33:00,
2013-05-24 14:38:00,49.6,25.7,29.87,NNE,24,0.0,0.0,39,0.00,,---,0.00,VWS V14.01,2013-05-24 21:38:00,
2013-05-24 14:43:00,49.5,26.2,31.20,NNE,13,0.0,0.0,40,0.00,,---,0.00,VWS V14.01,2013-05-24 21:43:00,
2013-05-24 14:48:00,51.1,26.4,31.20,NNW,337,0.0,0.0,38,0.00,,---,0.00,VWS V14.01,2013-05-24 21:48:00,
2013-05-24 14:53:00,52.3,26.8,29.88,North,11,0.0,0.0,37,0.00,,---,0.00,VWS V14.01,2013-05-24 21:53:00,
2013-05-24 14:58:00,51.3,25.9,29.88,NE,38,0.0,0.0,37,0.00,,---,0.00,VWS V14.01,2013-05-24 21:58:00,
2013-05-24 15:03:00,52.0,27.2,29.86,NE,37,0.0,0.0,38,0.00,,---,0.00,VWS V14.01,2013-05-24 22:03:00,
2013-05-24 15:09:00,51.4,26.0,31.21,NE,40,0.0,0.0,37,0.00,,---,0.00,VWS V14.01,2013-05-24 22:09:00,
2013-05-24 15:14:00,51.6,26.2,31.21,NE,44,0.0,0.0,37,0.00,,---,0.00,VWS V14.01,2013-05-24 22:14:00,
2013-05-24 15:19:00,51.9,26.5,31.21,NE,48,0.0,0.0,37,0.00,,---,0.00,VWS V14.01,2013-05-24 22:19:00,
2013-05-24 15:24:00,53.3,27.7,29.88,NNE,17,0.0,0.0,37,0.00,,---,0.00,VWS V14.01,2013-05-24 22:24:00,
2013-05-24 15:29:00,51.7,26.3,29.88,North,355,0.0,0.0,37,0.00,,---,0.00,VWS V14.01,2013-05-24 22:29:00,
2013-05-24 15:34:00,52.5,26.3,31.22,NNE,22,0.0,0.0,36,0.00,,---,0.00,VWS V14.01,2013-05-24 22:34:00,
2013-05-24 15:39:00,52.2,27.4,31.22,NE,42,0.0,0.0,38,0.00,,---,0.00,VWS V14.01,2013-05-24 22:39:00,
2013-05-24 15:44:00,51.6,26.2,29.86,ENE,62,0.0,0.0,37,0.00,,---,0.00,VWS V14.01,2013-05-24 22:44:00,
2013-05-24 15:49:00,51.7,26.9,29.86,North,355,0.0,0.0,38,0.00,,---,0.00,VWS V14.01,2013-05-24 22:49:00,
2013-05-24 15:54:00,51.1,27.6,31.21,North,360,0.0,0.0,40,0.00,,---,0.00,VWS V14.01,2013-05-24 22:54:00,
2013-05-24 15:59:00,50.7,27.3,29.53,NNW,341,0.0,0.0,40,0.00,,---,0.00,VWS V14.01,2013-05-24 22:59:00,
2013-05-24 16:04:00,50.4,27.6,27.85,NNE,24,0.0,0.0,41,0.00,,---,0.00,VWS V14.01,2013-05-24 23:04:00,
2013-05-24 16:09:00,50.4,27.6,27.85,NNE,21,0.0,0.0,41,0.00,,---,0.00,VWS V14.01,2013-05-24 23:09:00,
2013-05-24 16:14:00,50.2,28.0,29.52,NNE,26,0.0,0.0,42,0.00,,---,0.00,VWS V14.01,2013-05-24 23:14:00,
2013-05-24 16:19:00,50.5,28.3,29.52,North,9,0.0,0.0,42,0.00,,---,0.00,VWS V14.01,2013-05-24 23:19:00,
2013-05-24 16:24:00,50.1,27.9,31.20,North,5,0.0,0.0,42,0.00,,---,0.00,VWS V14.01,2013-05-24 23:24:00,
2013-05-24 16:30:00,50.1,28.5,27.84,North,360,0.0,0.0,43,0.00,,---,0.00,VWS V14.01,2013-05-24 23:30:00,
2013-05-24 16:35:00,50.5,28.3,27.84,NNE,17,0.0,0.0,42,0.00,,---,0.00,VWS V14.01,2013-05-24 23:35:00,
2013-05-24 16:40:00,51.3,28.4,27.84,North,9,0.0,0.0,41,0.00,,---,0.00,VWS V14.01,2013-05-24 23:40:00,
2013-05-24 16:45:00,52.2,29.2,31.21,NNW,347,0.0,0.0,41,0.00,,---,0.00,VWS V14.01,2013-05-24 23:45:00,
2013-05-24 16:50:00,51.0,28.1,31.21,North,355,0.0,0.0,41,0.00,,---,0.00,VWS V14.01,2013-05-24 23:50:00,
2013-05-24 16:55:00,50.4,28.2,27.84,North,5,0.0,0.0,42,0.00,,---,0.00,VWS V14.01,2013-05-24 23:55:00,
2013-05-24 17:00:00,50.1,27.9,27.84,North,360,0.0,0.0,42,0.00,,---,0.00,VWS V14.01,2013-05-25 00:00:00,
2013-05-24 17:05:00,50.4,28.2,27.84,North,355,0.0,0.0,42,0.00,,---,0.00,VWS V14.01,2013-05-25 00:05:00,
2013-05-24 17:10:00,50.7,27.9,27.84,North,355,0.0,0.0,41,0.00,,---,0.00,VWS V14.01,2013-05-25 00:10:00,
2013-05-24 17:15:00,50.7,27.9,27.85,NNW,339,0.0,0.0,41,0.00,,---,0.00,VWS V14.01,2013-05-25 00:15:00,
2013-05-24 17:20:00,50.4,28.2,27.85,North,360,0.0,0.0,42,0.00,,---,0.00,VWS V14.01,2013-05-25 00:20:00,
2013-05-24 17:25:00,50.1,27.3,29.52,North,5,0.0,0.0,41,0.00,,---,0.00,VWS V14.01,2013-05-25 00:25:00,
2013-05-24 17:30:00,49.8,26.5,29.52,NNE,19,0.0,0.0,40,0.00,,---,0.00,VWS V14.01,2013-05-25 00:30:00,
2013-05-24 17:35:00,49.9,27.1,27.84,North,360,0.0,0.0,41,0.00,,---,0.00,VWS V14.01,2013-05-25 00:35:00,
2013-05-24 17:40:00,49.8,27.1,27.84,NNW,346,0.0,0.0,41,0.00,,---,0.00,VWS V14.01,2013-05-25 00:40:00,
2013-05-24 17:46:00,49.1,27.0,27.84,NNW,336,0.0,0.0,42,0.00,,---,0.00,VWS V14.01,2013-05-25 00:46:00,
2013-05-24 17:51:00,49.1,27.0,27.84,North,5,0.0,0.0,42,0.00,,---,0.00,VWS V14.01,2013-05-25 00:51:00,
2013-05-24 17:56:00,49.1,27.6,27.84,NNE,12,0.0,0.0,43,0.00,,---,0.00,VWS V14.01,2013-05-25 00:56:00,
2013-05-24 18:01:00,48.9,27.4,27.84,North,351,0.0,0.0,43,0.00,,---,0.00,VWS V14.01,2013-05-25 01:01:00,
2013-05-24 18:06:00,48.6,27.7,27.84,North,5,0.0,0.0,44,0.00,,---,0.00,VWS V14.01,2013-05-25 01:06:00,
2013-05-24 18:11:00,48.8,27.9,27.84,NNW,342,0.0,0.0,44,0.00,,---,0.00,VWS V14.01,2013-05-25 01:11:00,
2013-05-24 18:16:00,48.6,28.8,27.84,NNE,14,0.0,0.0,46,0.00,,---,0.00,VWS V14.01,2013-05-25 01:16:00,
2013-05-24 18:21:00,48.3,28.5,27.84,NNW,348,0.0,0.0,46,0.00,,---,0.00,VWS V14.01,2013-05-25 01:21:00,
2013-05-24 18:26:00,48.0,28.8,27.84,North,355,0.0,0.0,47,0.00,,---,0.00,VWS V14.01,2013-05-25 01:26:00,
2013-05-24 18:31:00,47.7,29.0,29.52,NW,323,0.0,0.0,48,0.00,,---,0.00,VWS V14.01,2013-05-25 01:31:00,
2013-05-24 18:36:00,48.0,29.3,29.52,NNW,346,0.0,0.0,48,0.00,,---,0.00,VWS V14.01,2013-05-25 01:36:00,
2013-05-24 18:41:00,47.9,28.7,27.84,NNW,333,0.0,0.0,47,0.00,,---,0.00,VWS V14.01,2013-05-25 01:41:00,
2013-05-24 18:46:00,47.7,29.0,27.84,NNW,337,0.0,0.0,48,0.00,,---,0.00,VWS V14.01,2013-05-25 01:46:00,
2013-05-24 18:51:00,47.6,28.9,27.84,North,5,0.0,0.0,48,0.00,,---,0.00,VWS V14.01,2013-05-25 01:51:00,
2013-05-24 18:56:00,47.3,28.6,27.84,North,5,0.0,0.0,48,0.00,,---,0.00,VWS V14.01,2013-05-25 01:56:00,
2013-05-24 19:02:00,47.3,28.6,31.20,NNW,327,0.0,0.0,48,0.00,,---,0.00,VWS V14.01,2013-05-25 02:02:00,
2013-05-24 19:07:00,47.1,28.4,29.54,North,355,0.0,0.0,48,0.00,,---,0.00,VWS V14.01,2013-05-25 02:07:00,
2013-05-24 19:12:00,46.8,28.7,29.54,NNW,336,0.0,0.0,49,0.00,,---,0.00,VWS V14.01,2013-05-25 02:12:00,
2013-05-24 19:17:00,46.7,29.1,29.54,NNE,17,0.0,0.0,50,0.00,,---,0.00,VWS V14.01,2013-05-25 02:17:00,
2013-05-24 19:22:00,46.4,28.8,31.22,NNW,348,0.0,0.0,50,0.00,,---,0.00,VWS V14.01,2013-05-25 02:22:00,
2013-05-24 19:27:00,46.1,29.0,31.22,NNW,348,0.0,0.0,51,0.00,,---,0.00,VWS V14.01,2013-05-25 02:27:00,
2013-05-24 19:32:00,46.0,29.8,29.88,NW,318,0.0,0.0,53,0.00,,---,0.00,VWS V14.01,2013-05-25 02:32:00,
2013-05-24 19:37:00,45.7,30.0,31.22,NNW,341,0.0,0.0,54,0.00,,---,0.00,VWS V14.01,2013-05-25 02:37:00,
2013-05-24 19:42:00,45.4,30.6,31.21,North,355,0.0,0.0,56,0.00,,---,0.00,VWS V14.01,2013-05-25 02:42:00,
2013-05-24 19:47:00,45.2,30.5,31.21,North,5,0.0,0.0,56,0.00,,---,0.00,VWS V14.01,2013-05-25 02:47:00,
2013-05-24 19:52:00,45.1,30.8,31.21,North,5,0.0,0.0,57,0.00,,---,0.00,VWS V14.01,2013-05-25 02:52:00,
2013-05-24 19:57:00,44.9,31.0,31.21,North,11,0.0,0.0,58,0.00,,---,0.00,VWS V14.01,2013-05-25 02:57:00,
2013-05-24 20:02:00,44.8,31.4,31.21,North,350,0.0,0.0,59,0.00,,---,0.00,VWS V14.01,2013-05-25 03:02:00,
2013-05-24 20:08:00,44.6,31.2,31.23,North,10,0.0,0.0,59,0.00,,---,0.00,VWS V14.01,2013-05-25 03:08:00,
2013-05-24 20:13:00,44.5,31.1,31.23,NNE,24,0.0,0.0,59,0.00,,---,0.00,VWS V14.01,2013-05-25 03:13:00,
2013-05-24 20:18:00,44.2,31.2,31.22,NNW,348,0.0,0.0,60,0.00,,---,0.00,VWS V14.01,2013-05-25 03:18:00,
2013-05-24 20:23:00,44.1,31.5,31.22,NNW,337,0.0,0.0,61,0.00,,---,0.00,VWS V14.01,2013-05-25 03:23:00,
2013-05-24 20:28:00,43.8,31.6,31.22,North,349,0.0,0.0,62,0.00,,---,0.00,VWS V14.01,2013-05-25 03:28:00,
2013-05-24 20:33:00,43.5,31.4,31.22,NW,321,0.0,0.0,62,0.00,,---,0.00,VWS V14.01,2013-05-25 03:33:00,
2013-05-24 20:38:00,43.2,31.5,31.22,NNW,343,0.0,0.0,63,0.00,,---,0.00,VWS V14.01,2013-05-25 03:38:00,
2013-05-24 20:43:00,42.9,31.6,31.22,NNE,13,0.0,0.0,64,0.00,,---,0.00,VWS V14.01,2013-05-25 03:43:00,
2013-05-24 20:48:00,42.6,32.0,31.22,North,5,0.0,0.0,66,0.00,,---,0.00,VWS V14.01,2013-05-25 03:48:00,
2013-05-24 20:53:00,42.5,32.0,31.22,NNW,341,0.0,0.0,66,0.00,,---,0.00,VWS V14.01,2013-05-25 03:53:00,
2013-05-24 20:58:00,42.2,32.0,31.21,NNW,344,0.0,0.0,67,0.00,,---,0.00,VWS V14.01,2013-05-25 03:58:00,
2013-05-24 21:01:00,42.2,32.0,31.21,NNW,346,0.0,0.0,67,0.00,,---,0.00,VWS V14.01,2013-05-25 04:01:00,
2013-05-24 21:02:00,42.2,32.0,31.21,NNW,327,0.0,0.0,67,0.00,,---,0.00,VWS V14.01,2013-05-25 04:02:00,
2013-05-24 21:07:00,41.9,32.1,29.53,NNW,348,0.0,0.0,68,0.00,,---,0.00,VWS V14.01,2013-05-25 04:07:00,
2013-05-24 21:12:00,41.8,32.0,31.21,NNW,344,0.0,0.0,68,0.00,,---,0.00,VWS V14.01,2013-05-25 04:12:00,
2013-05-24 21:17:00,41.5,32.1,31.21,NNW,343,0.0,0.0,69,0.00,,---,0.00,VWS V14.01,2013-05-25 04:17:00,
2013-05-24 21:23:00,41.2,32.2,31.21,NNW,329,0.0,0.0,70,0.00,,---,0.00,VWS V14.01,2013-05-25 04:23:00,
2013-05-24 21:28:00,41.1,32.1,31.21,NNW,343,0.0,0.0,70,0.00,,---,0.00,VWS V14.01,2013-05-25 04:28:00,
2013-05-24 21:33:00,40.9,31.9,31.21,NNW,331,0.0,0.0,70,0.00,,---,0.00,VWS V14.01,2013-05-25 04:33:00,
2013-05-24 21:38:00,40.8,32.1,31.21,NNW,333,0.0,0.0,71,0.00,,---,0.00,VWS V14.01,2013-05-25 04:38:00,
2013-05-24 21:43:00,40.6,32.0,31.21,NNW,329,0.0,0.0,71,0.00,,---,0.00,VWS V14.01,2013-05-25 04:43:00,
2013-05-24 21:48:00,40.5,32.2,31.21,NNW,340,0.0,0.0,72,0.00,,---,0.00,VWS V14.01,2013-05-25 04:48:00,
2013-05-24 21:53:00,40.3,32.0,31.20,NNW,329,0.0,0.0,72,0.00,,---,0.00,VWS V14.01,2013-05-25 04:53:00,
2013-05-24 21:58:00,40.2,31.9,31.20,NNW,342,0.0,0.0,72,0.00,,---,0.00,VWS V14.01,2013-05-25 04:58:00,
2013-05-24 22:03:00,40.1,32.2,31.20,NNW,328,0.0,0.0,73,0.00,,---,0.00,VWS V14.01,2013-05-25 05:03:00,
2013-05-24 22:08:00,39.9,32.0,31.22,NNW,328,0.0,0.0,73,0.00,,---,0.00,VWS V14.01,2013-05-25 05:08:00,
2013-05-24 22:13:00,39.8,32.2,31.22,NNW,332,0.0,0.0,74,0.00,,---,0.00,VWS V14.01,2013-05-25 05:13:00,
2013-05-24 22:18:00,39.8,32.2,31.22,NNW,332,0.0,0.0,74,0.00,,---,0.00,VWS V14.01,2013-05-25 05:18:00,
2013-05-24 22:23:00,39.6,32.0,31.22,NNW,346,0.0,0.0,74,0.00,,---,0.00,VWS V14.01,2013-05-25 05:23:00,
2013-05-24 22:28:00,39.6,32.0,31.22,NNW,346,0.0,0.0,74,0.00,,---,0.00,VWS V14.01,2013-05-25 05:28:00,
2013-05-24 22:33:00,39.5,31.9,31.22,NNW,346,0.0,0.0,74,0.00,,---,0.00,VWS V14.01,2013-05-25 05:33:00,
2013-05-24 22:39:00,39.5,31.9,31.22,NNW,346,0.0,0.0,74,0.00,,---,0.00,VWS V14.01,2013-05-25 05:39:00,
2013-05-24 22:44:00,39.5,31.9,31.22,NNW,346,0.0,0.0,74,0.00,,---,0.00,VWS V14.01,2013-05-25 05:44:00,
2013-05-24 22:49:00,39.5,31.9,31.22,NNW,346,0.0,0.0,74,0.00,,---,0.00,VWS V14.01,2013-05-25 05:49:00,
2013-05-24 22:54:00,39.5,32.2,31.22,NNW,346,0.0,0.0,75,0.00,,---,0.00,VWS V14.01,2013-05-25 05:54:00,
2013-05-24 22:59:00,39.3,31.7,31.22,NNW,346,0.0,0.0,74,0.00,,---,0.00,VWS V14.01,2013-05-25 05:59:00,
2013-05-24 23:04:00,39.2,32.0,31.22,NNW,345,0.0,0.0,75,0.00,,---,0.00,VWS V14.01,2013-05-25 06:04:00,
2013-05-24 23:09:00,39.2,32.0,31.21,NNW,345,0.0,0.0,75,0.00,,---,0.00,VWS V14.01,2013-05-25 06:09:00,
2013-05-24 23:14:00,39.2,32.0,31.21,NNW,345,0.0,0.0,75,0.00,,---,0.00,VWS V14.01,2013-05-25 06:14:00,
2013-05-24 23:19:00,39.1,31.9,31.21,NNW,345,0.0,0.0,75,0.00,,---,0.00,VWS V14.01,2013-05-25 06:19:00,
2013-05-24 23:24:00,39.1,32.2,31.21,NNW,345,0.0,0.0,76,0.00,,---,0.00,VWS V14.01,2013-05-25 06:24:00,
2013-05-24 23:29:00,38.9,32.0,31.21,NNW,345,0.0,0.0,76,0.00,,---,0.00,VWS V14.01,2013-05-25 06:29:00,
2013-05-24 23:34:00,38.6,31.7,31.21,NNW,345,0.0,0.0,76,0.00,,---,0.00,VWS V14.01,2013-05-25 06:34:00,
2013-05-24 23:39:00,38.2,31.6,31.21,NNW,345,0.0,0.0,77,0.00,,---,0.00,VWS V14.01,2013-05-25 06:39:00,
2013-05-24 23:44:00,38.0,31.8,31.21,NNW,345,0.0,0.0,78,0.00,,---,0.00,VWS V14.01,2013-05-25 06:44:00,
2013-05-24 23:50:00,38.0,31.8,31.21,NNW,345,0.0,0.0,78,0.00,,---,0.00,VWS V14.01,2013-05-25 06:50:00,
2013-05-24 23:55:00,37.9,31.4,31.21,NNW,345,0.0,0.0,77,0.00,,---,0.00,VWS V14.01,2013-05-25 06:55:00,